• Em Portugal
  • Lista de países
  • Para 7 dias
  • Temperatura da água
  • Mapas de satélite
  • Mapa do tempo
  • Widgets de tempo
  • user-avatar
    Iniciar Sessão

    Previsão horária em Kociolki

    Hoje, 15 Agosto, Quarta-feira

    Tempo Temperatura Precipitação Vento Pressão Humidade
    00:00 +16°C° 0 mm 2 m/s 738 mmHg 94%
    01:00 +16°C° 0 mm 2 m/s 738 mmHg 95%
    02:00 +16°C° 0 mm 2 m/s 738 mmHg 95%
    03:00 +15°C° 0 mm 2 m/s 739 mmHg 95%
    04:00 +15°C° 0 mm 2 m/s 739 mmHg 95%
    05:00 +15°C° 0 mm 2 m/s 739 mmHg 95%
    06:00 +16°C° 0 mm 3 m/s 739 mmHg 91%
    07:00 +17°C° 0 mm 3 m/s 739 mmHg 87%
    08:00 +18°C° 0 mm 4 m/s 739 mmHg 84%
    09:00 +20°C° 0 mm 4 m/s 740 mmHg 79%
    10:00 +21°C° 0 mm 4 m/s 740 mmHg 74%
    11:00 +22°C° 0 mm 5 m/s 740 mmHg 69%
    12:00 +22°C° 0,2 mm 5 m/s 740 mmHg 68%
    13:00 +23°C° 0,2 mm 5 m/s 740 mmHg 67%
    14:00 +23°C° 0,2 mm 5 m/s 740 mmHg 66%
    15:00 +23°C° 0,2 mm 5 m/s 740 mmHg 68%
    16:00 +22°C° 0,2 mm 5 m/s 740 mmHg 71%
    17:00 +22°C° 0,2 mm 5 m/s 741 mmHg 74%
    18:00 +20°C° 0 mm 5 m/s 741 mmHg 79%
    19:00 +19°C° 0 mm 4 m/s 741 mmHg 84%
    20:00 +18°C° 0 mm 3 m/s 742 mmHg 90%
    21:00 +17°C° 0 mm 3 m/s 742 mmHg 92%
    22:00 +16°C° 0 mm 3 m/s 742 mmHg 94%
    23:00 +15°C° 0 mm 2 m/s 743 mmHg 96%

    Amanhã, 16 Agosto, Quinta-feira

    Tempo Temperatura Precipitação Vento Pressão Humidade
    00:00 +15°C° 0 mm 2 m/s 743 mmHg 96%
    01:00 +14°C° 0 mm 2 m/s 743 mmHg 97%
    02:00 +14°C° 0 mm 2 m/s 743 mmHg 97%
    03:00 +14°C° 0 mm 2 m/s 743 mmHg 97%
    04:00 +13°C° 0 mm 2 m/s 744 mmHg 97%
    05:00 +13°C° 0 mm 2 m/s 744 mmHg 97%
    06:00 +14°C° 0 mm 2 m/s 744 mmHg 93%
    07:00 +16°C° 0 mm 3 m/s 744 mmHg 90%
    08:00 +17°C° 0 mm 3 m/s 745 mmHg 86%
    09:00 +18°C° 0 mm 3 m/s 745 mmHg 80%
    10:00 +20°C° 0 mm 3 m/s 745 mmHg 75%
    11:00 +21°C° 0 mm 3 m/s 745 mmHg 70%
    12:00 +21°C° 0,1 mm 2 m/s 745 mmHg 68%
    13:00 +23°C° 0,1 mm 2 m/s 745 mmHg 67%
    14:00 +23°C° 0,1 mm 2 m/s 745 mmHg 65%
    15:00 +23°C° 0,1 mm 2 m/s 745 mmHg 66%
    16:00 +23°C° 0,1 mm 2 m/s 745 mmHg 66%
    17:00 +24°C° 0,1 mm 2 m/s 745 mmHg 66%
    18:00 +22°C° 0 mm 1 m/s 745 mmHg 72%
    19:00 +20°C° 0 mm 1 m/s 745 mmHg 78%
    20:00 +19°C° 0 mm 1 m/s 745 mmHg 85%
    21:00 +18°C° 0 mm 1 m/s 745 mmHg 86%
    22:00 +18°C° 0 mm 1 m/s 745 mmHg 88%
    23:00 +15°C° 0 mm 0 m/s 745 mmHg 90%

    Depois de amanhã, 17 Agosto, Sexta-feira

    Tempo Temperatura Precipitação Vento Pressão Humidade
    00:00 +15°C° 0 mm 0 m/s 745 mmHg 91%
    01:00 +14°C° 0 mm 0 m/s 745 mmHg 92%
    02:00 +14°C° 0 mm 0 m/s 745 mmHg 92%
    03:00 +14°C° 0 mm 0 m/s 745 mmHg 93%
    04:00 +14°C° 0 mm 0 m/s 745 mmHg 93%
    05:00 +14°C° 0 mm 1 m/s 745 mmHg 94%
    06:00 +16°C° 0 mm 1 m/s 745 mmHg 90%
    07:00 +18°C° 0 mm 1 m/s 745 mmHg 86%
    08:00 +20°C° 0 mm 1 m/s 746 mmHg 82%
    09:00 +21°C° 0 mm 1 m/s 746 mmHg 77%
    10:00 +22°C° 0 mm 1 m/s 745 mmHg 71%
    11:00 +24°C° 0 mm 2 m/s 745 mmHg 65%
    12:00 +24°C° 0 mm 2 m/s 745 mmHg 63%
    13:00 +25°C° 0 mm 2 m/s 745 mmHg 60%
    14:00 +25°C° 0 mm 2 m/s 745 mmHg 58%
    15:00 +25°C° 0 mm 2 m/s 744 mmHg 58%
    16:00 +25°C° 0 mm 2 m/s 744 mmHg 59%
    17:00 +25°C° 0 mm 2 m/s 744 mmHg 59%
    18:00 +24°C° 0 mm 2 m/s 744 mmHg 66%
    19:00 +21°C° 0 mm 2 m/s 744 mmHg 73%
    20:00 +19°C° 0 mm 2 m/s 744 mmHg 79%
    21:00 +18°C° 0 mm 2 m/s 744 mmHg 82%
    22:00 +18°C° 0 mm 2 m/s 744 mmHg 85%
    23:00 +17°C° 0 mm 2 m/s 744 mmHg 88%

    18 Agosto, Sábado

    Tempo Temperatura Precipitação Vento Pressão Humidade
    00:00 +17°C° 0 mm 2 m/s 744 mmHg 89%
    01:00 +16°C° 0 mm 1 m/s 744 mmHg 90%
    02:00 +16°C° 0 mm 1 m/s 744 mmHg 91%
    03:00 +16°C° 0 mm 1 m/s 744 mmHg 91%
    04:00 +15°C° 0 mm 1 m/s 744 mmHg 92%
    05:00 +15°C° 0 mm 1 m/s 744 mmHg 92%
    06:00 +18°C° 0 mm 1 m/s 744 mmHg 87%
    07:00 +19°C° 0 mm 1 m/s 744 mmHg 82%
    08:00 +21°C° 0 mm 1 m/s 745 mmHg 76%
    09:00 +23°C° 0 mm 1 m/s 745 mmHg 71%
    10:00 +24°C° 0 mm 1 m/s 745 mmHg 65%
    11:00 +26°C° 0 mm 2 m/s 745 mmHg 59%
    12:00 +26°C° 0,1 mm 2 m/s 745 mmHg 57%
    13:00 +27°C° 0,1 mm 2 m/s 744 mmHg 54%
    14:00 +27°C° 0,1 mm 2 m/s 744 mmHg 51%
    15:00 +27°C° 0,2 mm 2 m/s 744 mmHg 56%
    16:00 +26°C° 0,2 mm 2 m/s 744 mmHg 60%
    17:00 +26°C° 0,2 mm 3 m/s 744 mmHg 65%
    18:00 +24°C° 0,1 mm 2 m/s 744 mmHg 73%
    19:00 +21°C° 0,1 mm 2 m/s 744 mmHg 80%
    20:00 +19°C° 0,1 mm 2 m/s 744 mmHg 88%
    21:00 +18°C° 0 mm 2 m/s 745 mmHg 90%
    22:00 +18°C° 0 mm 3 m/s 745 mmHg 93%
    23:00 +17°C° 0 mm 3 m/s 745 mmHg 96%

    19 Agosto, Domingo

    Tempo Temperatura Precipitação Vento Pressão Humidade
    00:00 +16°C° 0 mm 3 m/s 745 mmHg 96%
    01:00 +15°C° 0 mm 2 m/s 745 mmHg 95%
    02:00 +14°C° 0 mm 2 m/s 745 mmHg 95%
    03:00 +14°C° 0 mm 2 m/s 745 mmHg 94%
    04:00 +13°C° 0 mm 2 m/s 745 mmHg 94%
    05:00 +13°C° 0 mm 2 m/s 745 mmHg 93%
    06:00 +14°C° 0 mm 2 m/s 745 mmHg 88%
    07:00 +15°C° 0 mm 2 m/s 746 mmHg 83%
    08:00 +16°C° 0 mm 2 m/s 746 mmHg 78%
    09:00 +18°C° 0 mm 3 m/s 746 mmHg 73%
    10:00 +19°C° 0 mm 3 m/s 746 mmHg 67%
    11:00 +21°C° 0 mm 4 m/s 746 mmHg 62%
    12:00 +21°C° 0 mm 4 m/s 746 mmHg 62%
    13:00 +22°C° 0 mm 4 m/s 746 mmHg 62%
    14:00 +23°C° 0 mm 5 m/s 746 mmHg 62%
    15:00 +22°C° 0,2 mm 4 m/s 746 mmHg 69%
    16:00 +20°C° 0,2 mm 4 m/s 746 mmHg 75%
    17:00 +19°C° 0,2 mm 4 m/s 746 mmHg 81%
    18:00 +18°C° 0 mm 3 m/s 746 mmHg 85%
    19:00 +17°C° 0 mm 3 m/s 746 mmHg 89%
    20:00 +16°C° 0 mm 2 m/s 746 mmHg 93%
    21:00 +16°C° 0 mm 2 m/s 746 mmHg 93%
    22:00 +15°C° 0 mm 2 m/s 746 mmHg 94%
    23:00 +14°C° 0 mm 2 m/s 746 mmHg 94%

    20 Agosto, Segunda-feira

    Tempo Temperatura Precipitação Vento Pressão Humidade
    00:00 +13°C° 0 mm 2 m/s 746 mmHg 94%
    01:00 +13°C° 0 mm 2 m/s 746 mmHg 94%
    02:00 +12°C° 0 mm 2 m/s 746 mmHg 94%
    03:00 +12°C° 0 mm 2 m/s 746 mmHg 95%
    04:00 +10°C° 0 mm 2 m/s 746 mmHg 95%
    05:00 +10°C° 0 mm 2 m/s 746 mmHg 95%
    06:00 +13°C° 0 mm 2 m/s 746 mmHg 91%
    07:00 +14°C° 0 mm 2 m/s 747 mmHg 86%
    08:00 +15°C° 0 mm 2 m/s 747 mmHg 82%
    09:00 +17°C° 0 mm 2 m/s 747 mmHg 75%
    10:00 +19°C° 0 mm 2 m/s 747 mmHg 68%
    11:00 +20°C° 0 mm 2 m/s 747 mmHg 60%
    12:00 +21°C° 0 mm 2 m/s 747 mmHg 58%
    13:00 +21°C° 0 mm 3 m/s 747 mmHg 56%
    14:00 +22°C° 0 mm 3 m/s 747 mmHg 54%
    15:00 +22°C° 0 mm 3 m/s 747 mmHg 56%
    16:00 +21°C° 0 mm 3 m/s 747 mmHg 58%
    17:00 +21°C° 0 mm 3 m/s 747 mmHg 60%
    18:00 +19°C° 0 mm 2 m/s 746 mmHg 68%
    19:00 +18°C° 0 mm 2 m/s 746 mmHg 75%
    20:00 +16°C° 0 mm 1 m/s 746 mmHg 82%
    21:00 +15°C° 0 mm 1 m/s 746 mmHg 84%
    22:00 +15°C° 0 mm 1 m/s 746 mmHg 86%
    23:00 +14°C° 0 mm 1 m/s 746 mmHg 88%
    Mostrar mais